Location: Cogollal
(10.0582°N, 67.8466°W)
Time: 12:12:19
(UTC+00:00)

Cosmos 468 - Pass Details

Date: 14 April 2024
Orbit: 761 x 781 km, 74.0° (Epoch: 24 May)

Event Time Altitude Azimuth Distance (km) Brightness Sun altitude
Exits shadow 08:37:27 68° 193° (SSW) 834 4.5 -25.8°
Maximum altitude 08:38:10 90° 271° (W) 779 4.4 -25.6°
Drops below altitude 10° 08:43:26 10° 13° (NNE) 2,312 7.3 -24.3°
Sets 08:45:48 0° 13° (NNE) 3,236 8.1 -23.8°
